Temp
67 67 66 65 65 64 64 63 62 62 62 61 61 61 61 62 62 62 62 62 62 61 61 60 60 59 57 57 60 62 63 64 63 62 62 62 62 61 60 60 59 58 58 57 57 57 57 57 57 56 55 55 54 53 53 53 53 52 52 51 51 51 50 50 50 49 49 48 48
66 66 66 66 65 64 63 62 62 62 62 61 61 61 61 62 62 62 62 61 61 61 59 58 58 57 57 57 60 62 63 63 62 62 62 62 62 61 60 60 59 58 58 57 58 58 58 58 57 56 55 54 54 53 53 53 53 53 52 51 51 51 51 50 49 48 48 47 47
67 66 66 66 65 64 64 62 61 60 59 59 60 60 61 61 61 62 61 60 59 59 58 58 57 57 57 57 59 62 63 63 62 62 61 61 61 61 61 60 60 59 59 59 59 59 59 58 57 56 55 54 54 53 53 53 53 52 52 51 51 51 50 49 48 48 47 47 46
67 66 66 65 64 64 64 63 61 60 60 60 59 59 59 60 60 60 59 58 58 58 58 57 57 57 57 58 59 62 63 63 62 61 61 60 60 60 60 60 60 59 59 59 59 59 58 57 57 55 54 53 53 53 53 52 52 52 51 51 50 50 49 48 48 47 47 46 46
66 66 66 66 64 64 64 64 62 61 60 60 60 60 59 58 58 58 58 58 58 58 57 57 57 57 58 58 60 62 63 62 62 61 60 59 59 60 60 60 59 59 59 59 59 58 57 56 55 54 53 53 53 52 52 52 51 50 50 50 49 49 48 48 47 47 46 46 45
66 66 66 66 64 64 64 63 62 61 61 61 60 60 59 59 58 58 58 58 57 57 57 57 57 57 58 59 61 62 62 62 62 61 60 59 58 59 59 59 58 58 59 59 58 57 56 55 54 53 53 52 52 51 51 51 50 50 49 49 48 48 48 47 47 46 46 45 44
67 66 65 65 64 64 64 62 62 62 62 61 60 59 59 59 58 58 58 58 57 57 57 58 58 58 58 59 61 62 62 62 61 61 60 59 58 58 58 57 57 58 58 58 57 56 55 54 53 52 52 52 51 51 51 51 50 49 48 48 48 47 47 46 46 46 45 44 44
66 66 65 65 64 64 63 62 62 62 62 61 61 60 59 59 58 58 58 57 57 57 57 58 57 58 59 61 62 62 61 61 60 60 59 59 58 58 58 57 57 57 56 56 55 54 53 53 52 52 51 51 50 50 50 50 49 48 48 47 47 47 46 46 46 45 44 44 43
65 65 65 64 64 63 63 62 62 62 61 60 60 59 59 59 58 58 58 58 57 58 58 58 57 58 59 62 62 61 60 60 60 59 59 58 58 58 57 57 56 56 55 55 54 53 53 52 52 51 51 50 50 49 49 49 48 48 47 46 46 46 46 45 45 44 44 43 42
65 64 64 64 63 63 63 62 61 61 60 59 59 59 59 59 58 58 58 59 58 58 58 58 58 59 60 62 61 60 59 59 59 59 58 58 58 58 57 56 55 55 54 54 53 53 52 51 50 50 50 49 49 48 48 48 48 47 46 46 45 45 44 44 44 43 42 41 40
64 64 64 64 63 63 62 62 61 60 59 58 58 58 58 59 58 58 59 59 58 58 58 58 59 60 61 62 61 60 59 59 59 59 58 58 58 57 56 56 55 54 53 53 53 52 51 50 50 49 49 48 48 48 48 47 47 46 45 45 44 44 43 43 42 41 41 40 39
64 64 64 63 63 63 62 62 61 60 59 58 58 58 58 58 58 58 59 59 58 58 58 59 61 62 62 62 60 59 58 58 58 58 58 58 57 56 56 55 54 53 53 53 52 51 51 50 49 48 48 48 48 47 47 47 46 46 45 44 44 43 42 42 41 40 40 39 39
64 64 63 63 63 62 62 61 61 60 59 58 58 58 58 58 58 58 59 59 59 59 59 60 62 62 62 60 59 58 58 59 59 58 58 57 56 55 54 54 53 53 52 52 51 51 50 49 49 48 47 47 47 47 47 46 46 45 44 43 43 42 41 40 40 39 39 38 38
64 64 63 63 62 62 62 61 60 60 59 58 59 59 58 58 58 59 60 60 60 60 60 61 62 61 60 59 59 59 59 59 58 57 56 55 55 54 53 53 52 52 51 51 51 50 50 49 49 48 47 47 46 46 46 46 45 44 43 42 41 40 40 39 39 38 38 37 36
64 63 63 63 62 62 62 61 60 60 59 58 59 59 59 59 59 60 61 60 60 61 61 61 60 60 59 59 59 59 59 58 57 56 55 54 53 53 52 52 51 51 51 50 50 50 49 49 48 48 47 46 46 46 45 45 44 43 42 41 41 40 39 39 38 38 37 36 34
63 63 63 62 62 62 61 61 61 60 59 59 59 59 59 60 60 61 61 61 61 61 61 60 59 59 59 59 59 58 58 57 56 55 54 53 53 52 52 51 51 50 50 50 49 49 49 48 48 47 46 46 45 44 44 44 43 42 42 41 40 40 39 38 38 37 36 35 33
63 62 62 62 62 61 61 61 61 60 59 59 59 59 60 60 60 61 61 61 61 60 59 59 59 59 58 58 58 57 56 55 55 54 53 53 52 51 51 50 50 49 49 49 48 48 47 47 47 46 46 45 44 43 43 43 42 42 41 41 40 39 39 38 37 35 34 34 33
63 62 62 62 61 61 61 61 60 60 59 59 59 59 60 60 60 61 61 61 60 59 58 58 58 58 57 57 56 56 55 54 54 53 53 52 52 51 50 50 49 49 48 48 47 47 46 46 45 45 44 44 43 42 42 42 41 41 40 40 39 38 37 36 35 34 34 33 32
63 62 62 62 61 61 61 60 60 60 59 59 59 59 60 60 60 60 60 60 59 59 58 57 57 57 56 56 55 55 55 54 53 53 52 52 51 51 50 49 48 48 47 46 46 45 45 45 44 44 43 43 42 42 41 41 40 39 39 37 36 35 34 33 33 33 33 32 31
62 62 62 62 61 61 61 60 60 60 59 59 59 59 59 59 60 59 59 58 58 58 57 57 56 56 55 55 55 54 54 53 53 52 51 51 50 50 49 48 47 46 46 45 44 44 44 44 44 43 42 42 41 40 40 39 38 37 36 35 34 33 32 32 32 31 31 31 30
62 62 62 62 62 61 61 60 60 60 59 59 58 58 58 58 59 58 58 58 57 57 57 56 56 55 54 54 53 53 53 52 52 51 51 50 49 49 48 47 46 45 45 44 44 44 44 44 43 43 42 41 40 39 39 38 37 36 35 35 34 33 32 32 32 31 30 30 29
62 62 62 62 61 61 60 60 59 59 58 58 57 57 57 57 57 57 57 57 57 56 56 55 55 54 54 53 52 52 51 51 50 50 49 49 48 47 47 46 45 44 43 43 42 42 42 43 42 41 40 39 38 38 38 37 36 35 34 33 33 32 32 32 32 31 30 29 28
62 62 61 61 60 60 59 59 58 58 57 57 57 57 57 57 56 56 56 56 56 55 55 54 54 53 53 52 51 50 50 49 48 48 47 47 46 46 45 44 43 42 42 41 41 40 39 39 39 38 38 37 37 37 36 36 35 34 32 32 32 31 31 31 31 31 30 30 29
61 61 60 60 59 59 58 58 58 57 57 56 56 56 56 56 56 56 55 55 55 54 54 53 52 52 51 51 50 49 48 47 46 46 45 45 44 44 43 43 42 41 40 40 40 39 38 38 36 36 36 36 36 36 35 34 33 32 32 31 31 30 30 29 29 29 29 30 30
60 60 59 59 58 58 58 57 57 56 56 55 55 55 55 55 55 54 54 53 53 52 52 51 51 50 50 49 49 48 47 46 45 44 44 43 43 43 42 42 41 40 40 41 43 43 42 40 38 37 37 37 36 35 34 33 33 33 33 32 31 30 29 28 28 28 28 28 29
59 59 58 58 58 57 57 56 56 55 55 55 55 55 54 54 53 53 52 51 51 50 50 50 49 49 48 48 47 47 46 45 45 44 43 43 42 42 42 42 41 41 41 44 44 44 44 43 42 40 39 37 36 35 34 33 32 32 32 32 31 30 29 28 27 27 27 27 27
58 58 58 57 57 56 56 56 55 55 55 54 54 53 53 53 52 51 50 50 49 49 49 49 48 48 48 47 46 46 45 44 44 44 44 43 43 42 42 42 42 42 43 45 46 45 45 44 43 41 39 37 35 34 32 32 31 31 31 30 30 29 28 27 27 27 27 26 26
58 57 57 57 56 56 55 55 55 54 54 53 53 52 52 51 51 50 49 49 49 48 48 48 48 47 47 46 45 45 44 44 44 44 44 44 43 43 43 43 43 44 45 46 46 46 45 44 43 42 40 37 35 33 32 31 31 31 30 30 29 28 27 27 27 26 26 25 26
57 57 57 56 55 55 55 54 54 53 53 52 52 51 51 50 49 49 48 48 48 47 47 47 47 46 46 45 44 44 44 44 44 44 44 44 43 43 43 43 44 45 46 47 46 45 45 44 43 42 40 38 36 34 33 32 32 31 30 29 28 28 27 26 26 26 26 25 25
57 56 56 55 55 54 54 53 53 52 52 51 51 50 50 49 49 48 48 47 47 47 46 46 46 45 45 44 44 44 44 44 44 44 44 43 43 43 43 43 44 44 45 46 46 45 44 44 43 42 41 39 36 34 32 31 31 30 30 29 28 27 26 26 25 25 25 25 25
56 56 55 54 54 53 53 52 52 51 51 51 50 50 49 48 48 47 47 47 46 46 46 46 45 45 44 44 44 44 44 44 44 44 44 43 43 43 43 43 43 44 45 46 45 45 44 43 42 41 40 39 36 33 32 31 30 30 29 28 27 27 26 26 25 25 25 25 25
56 55 54 54 53 52 52 51 51 51 50 50 49 48 48 47 47 46 46 46 46 46 45 45 45 44 44 44 44 44 44 44 44 43 43 43 42 42 42 43 43 44 45 46 45 44 44 43 42 41 40 38 35 33 31 30 30 29 28 27 27 26 26 27 25 24 23 24 25
55 54 53 52 51 51 51 50 50 50 49 49 48 47 47 46 46 46 46 46 46 45 45 44 44 44 43 43 43 43 43 44 44 44 43 43 42 42 42 42 43 44 45 45 45 44 43 42 41 40 39 37 35 32 31 31 30 29 28 27 26 25 25 24 24 23 23 23 23
54 53 52 51 51 50 50 50 49 49 48 47 47 47 46 46 46 45 45 45 45 45 44 44 44 44 43 43 43 43 43 43 43 43 43 43 42 42 42 42 43 44 45 45 44 44 43 42 41 40 39 37 34 32 31 30 30 29 27 26 25 24 24 23 23 22 22 22 22
53 52 51 50 50 49 49 49 48 48 47 46 46 46 46 46 45 45 45 45 45 44 44 44 44 44 43 43 43 43 43 43 42 43 43 43 42 42 42 42 43 44 45 45 44 43 42 42 41 39 38 35 33 31 30 29 29 28 27 26 25 24 24 23 23 23 23 23 23
53 52 51 50 49 49 48 48 48 47 46 46 45 45 45 45 45 45 45 45 44 44 43 43 43 43 42 42 42 42 42 42 42 42 43 43 42 41 41 41 42 43 44 44 44 43 42 41 40 38 37 34 32 31 30 29 29 28 27 27 26 25 25 25 25 25 25 25 26
52 51 50 49 49 48 48 48 47 46 46 45 45 45 44 44 44 44 45 45 44 43 42 42 42 42 41 41 41 41 41 42 42 42 42 42 42 41 40 40 41 42 43 44 43 42 41 41 39 38 35 32 31 30 30 30 29 28 27 26 25 24 24 25 25 26 27 28 29
52 51 50 49 48 48 48 47 46 46 45 45 44 44 44 44 44 44 44 45 43 42 42 41 41 41 41 41 41 41 41 42 42 42 41 41 41 40 40 39 39 41 42 43 42 42 41 40 39 37 35 31 30 30 30 29 28 28 27 26 24 23 23 23 25 27 29 32 35
51 50 50 49 48 48 47 47 46 45 45 44 44 44 44 44 44 44 44 44 43 42 41 41 40 40 41 41 40 40 41 41 42 41 41 40 40 40 40 39 39 40 41 42 42 41 41 40 39 38 35 32 30 30 30 29 28 27 26 25 24 24 24 24 27 29 31 34 39
51 50 49 49 48 47 47 46 45 45 44 44 44 44 43 44 44 44 44 44 43 42 41 40 40 40 40 41 40 40 39 40 40 41 40 40 40 41 40 39 38 39 40 42 42 41 41 40 39 38 36 32 30 30 30 29 27 26 26 25 26 27 28 28 29 30 31 33 37
50 50 49 48 48 47 46 45 45 44 44 44 44 43 44 44 44 44 43 43 42 41 41 40 40 40 40 40 40 39 39 39 39 39 40 40 40 40 40 38 38 38 39 41 41 41 41 40 39 38 36 32 30 30 29 29 28 26 25 25 27 29 30 30 31 31 32 32 33
MSLP
1008.67 1008.91 1009.11 1009.39 1009.63 1009.83 1010.07 1010.31 1010.51 1010.71 1010.95 1011.15 1011.39 1011.55 1011.79 1011.95 1012.11 1012.31 1012.47 1012.59 1012.75 1012.95 1013.11 1013.27 1013.47 1013.67 1013.83 1013.99 1014.11 1014.27 1014.43 1014.63 1014.83 1014.99 1015.19 1015.39 1015.59 1015.71 1015.83 1015.95 1016.07 1016.23 1016.43 1016.63 1016.79 1016.95 1017.11 1017.27 1017.47 1017.67 1017.91 1018.07 1018.23 1018.47 1018.59 1018.67 1018.79 1018.99 1019.27 1019.51 1019.75 1019.91 1020.07 1020.23 1020.39 1020.55 1020.71 1020.87 1021.03
1008.59 1008.79 1009.03 1009.27 1009.51 1009.79 1010.03 1010.27 1010.51 1010.71 1010.95 1011.15 1011.31 1011.51 1011.67 1011.87 1012.07 1012.23 1012.39 1012.55 1012.67 1012.87 1013.07 1013.27 1013.43 1013.63 1013.79 1013.95 1014.07 1014.19 1014.39 1014.55 1014.79 1014.95 1015.15 1015.39 1015.51 1015.67 1015.79 1015.95 1016.07 1016.23 1016.39 1016.63 1016.79 1016.99 1017.15 1017.31 1017.51 1017.75 1017.95 1018.15 1018.35 1018.51 1018.67 1018.79 1018.87 1019.11 1019.39 1019.55 1019.79 1019.95 1020.11 1020.35 1020.55 1020.75 1020.91 1021.07 1021.23
1008.43 1008.67 1008.95 1009.19 1009.47 1009.71 1009.99 1010.23 1010.51 1010.71 1010.95 1011.15 1011.31 1011.51 1011.67 1011.83 1011.99 1012.19 1012.39 1012.51 1012.67 1012.87 1013.07 1013.23 1013.43 1013.59 1013.79 1013.95 1014.03 1014.19 1014.31 1014.51 1014.71 1014.95 1015.15 1015.31 1015.47 1015.63 1015.79 1015.95 1016.11 1016.23 1016.39 1016.63 1016.79 1017.03 1017.19 1017.35 1017.51 1017.75 1017.99 1018.19 1018.39 1018.63 1018.79 1018.91 1018.99 1019.19 1019.47 1019.67 1019.83 1020.03 1020.27 1020.51 1020.71 1020.91 1021.07 1021.23 1021.39
1008.39 1008.63 1008.83 1009.11 1009.39 1009.63 1009.87 1010.11 1010.43 1010.67 1010.91 1011.11 1011.31 1011.51 1011.67 1011.83 1011.99 1012.15 1012.35 1012.51 1012.67 1012.83 1013.03 1013.23 1013.43 1013.59 1013.71 1013.91 1014.03 1014.15 1014.23 1014.47 1014.67 1014.87 1015.11 1015.27 1015.47 1015.63 1015.79 1015.95 1016.15 1016.31 1016.47 1016.67 1016.83 1017.07 1017.23 1017.39 1017.63 1017.83 1018.07 1018.27 1018.51 1018.71 1018.91 1019.07 1019.19 1019.39 1019.63 1019.79 1020.03 1020.23 1020.43 1020.67 1020.83 1021.03 1021.23 1021.39 1021.55
1008.31 1008.51 1008.75 1009.03 1009.27 1009.51 1009.79 1010.07 1010.39 1010.67 1010.87 1011.11 1011.35 1011.55 1011.71 1011.87 1012.03 1012.19 1012.39 1012.55 1012.67 1012.83 1012.99 1013.19 1013.39 1013.55 1013.71 1013.83 1013.99 1014.15 1014.27 1014.47 1014.63 1014.87 1015.11 1015.31 1015.47 1015.67 1015.79 1015.99 1016.23 1016.39 1016.51 1016.75 1016.95 1017.15 1017.35 1017.51 1017.79 1018.03 1018.23 1018.39 1018.67 1018.87 1019.03 1019.23 1019.39 1019.55 1019.79 1020.03 1020.23 1020.39 1020.63 1020.79 1021.03 1021.23 1021.39 1021.51 1021.71
1008.23 1008.51 1008.71 1008.99 1009.23 1009.51 1009.75 1010.03 1010.31 1010.55 1010.79 1011.07 1011.31 1011.51 1011.71 1011.87 1012.03 1012.19 1012.39 1012.59 1012.71 1012.87 1012.99 1013.19 1013.35 1013.51 1013.67 1013.83 1013.95 1014.11 1014.31 1014.51 1014.67 1014.87 1015.11 1015.35 1015.55 1015.71 1015.91 1016.11 1016.31 1016.47 1016.63 1016.83 1017.03 1017.23 1017.47 1017.67 1017.95 1018.19 1018.39 1018.63 1018.79 1019.03 1019.19 1019.31 1019.47 1019.71 1019.99 1020.27 1020.51 1020.67 1020.83 1021.07 1021.23 1021.39 1021.51 1021.71 1021.91
1008.19 1008.43 1008.71 1008.99 1009.23 1009.47 1009.75 1010.03 1010.27 1010.51 1010.75 1011.03 1011.23 1011.47 1011.67 1011.83 1012.03 1012.19 1012.39 1012.55 1012.75 1012.91 1013.03 1013.19 1013.39 1013.55 1013.71 1013.87 1013.99 1014.19 1014.39 1014.55 1014.75 1014.95 1015.11 1015.39 1015.63 1015.79 1015.99 1016.23 1016.39 1016.55 1016.71 1016.91 1017.11 1017.39 1017.59 1017.79 1018.07 1018.35 1018.55 1018.75 1018.99 1019.23 1019.39 1019.43 1019.63 1019.83 1020.11 1020.47 1020.71 1020.91 1021.07 1021.27 1021.43 1021.59 1021.79 1021.95 1022.07
1008.11 1008.39 1008.67 1008.95 1009.19 1009.43 1009.71 1010.03 1010.23 1010.51 1010.75 1010.99 1011.19 1011.39 1011.63 1011.79 1011.99 1012.19 1012.39 1012.55 1012.75 1012.91 1013.03 1013.19 1013.39 1013.51 1013.67 1013.83 1013.99 1014.15 1014.39 1014.63 1014.79 1014.99 1015.23 1015.47 1015.67 1015.87 1016.07 1016.31 1016.51 1016.67 1016.87 1017.03 1017.27 1017.51 1017.75 1017.95 1018.19 1018.47 1018.67 1018.91 1019.15 1019.39 1019.55 1019.63 1019.79 1020.03 1020.35 1020.67 1020.95 1021.15 1021.31 1021.47 1021.67 1021.79 1021.95 1022.07 1022.27
1008.15 1008.39 1008.63 1008.91 1009.15 1009.39 1009.67 1009.95 1010.23 1010.47 1010.71 1010.99 1011.23 1011.39 1011.59 1011.79 1011.99 1012.19 1012.39 1012.59 1012.71 1012.87 1013.03 1013.23 1013.39 1013.55 1013.67 1013.79 1013.99 1014.19 1014.39 1014.67 1014.87 1015.11 1015.31 1015.51 1015.71 1015.95 1016.23 1016.43 1016.67 1016.87 1017.07 1017.27 1017.47 1017.67 1017.91 1018.11 1018.39 1018.67 1018.87 1019.07 1019.35 1019.59 1019.75 1019.83 1019.99 1020.23 1020.51 1020.79 1021.11 1021.39 1021.51 1021.71 1021.87 1022.03 1022.15 1022.31 1022.51
1008.15 1008.39 1008.67 1008.95 1009.15 1009.39 1009.67 1009.95 1010.23 1010.47 1010.75 1011.03 1011.23 1011.39 1011.63 1011.79 1011.99 1012.19 1012.39 1012.51 1012.75 1012.95 1013.11 1013.27 1013.43 1013.59 1013.71 1013.83 1014.07 1014.23 1014.47 1014.67 1014.91 1015.11 1015.35 1015.59 1015.79 1016.03 1016.31 1016.51 1016.79 1016.99 1017.23 1017.43 1017.63 1017.83 1018.07 1018.31 1018.59 1018.83 1019.11 1019.31 1019.51 1019.79 1019.95 1020.07 1020.23 1020.43 1020.75 1021.07 1021.31 1021.51 1021.75 1021.95 1022.11 1022.27 1022.39 1022.55 1022.79
1008.11 1008.39 1008.63 1008.91 1009.23 1009.47 1009.71 1009.99 1010.23 1010.51 1010.75 1011.03 1011.23 1011.43 1011.67 1011.83 1011.99 1012.19 1012.39 1012.51 1012.79 1012.99 1013.19 1013.35 1013.47 1013.63 1013.75 1013.91 1014.11 1014.31 1014.51 1014.71 1014.95 1015.19 1015.43 1015.67 1015.87 1016.11 1016.39 1016.63 1016.87 1017.11 1017.35 1017.55 1017.75 1017.95 1018.23 1018.51 1018.79 1019.07 1019.35 1019.55 1019.79 1019.95 1020.15 1020.27 1020.43 1020.67 1020.99 1021.31 1021.51 1021.75 1021.95 1022.23 1022.39 1022.51 1022.67 1022.83 1023.03
1008.11 1008.39 1008.63 1008.91 1009.23 1009.47 1009.71 1010.03 1010.31 1010.55 1010.79 1011.11 1011.27 1011.47 1011.67 1011.87 1012.03 1012.23 1012.39 1012.67 1012.87 1013.07 1013.23 1013.35 1013.47 1013.59 1013.75 1013.95 1014.19 1014.39 1014.59 1014.79 1015.03 1015.27 1015.51 1015.79 1015.99 1016.23 1016.51 1016.79 1017.03 1017.27 1017.47 1017.67 1017.83 1018.07 1018.35 1018.63 1018.91 1019.23 1019.51 1019.75 1019.95 1020.19 1020.39 1020.51 1020.67 1020.91 1021.23 1021.51 1021.71 1021.95 1022.23 1022.51 1022.67 1022.79 1022.95 1023.11 1023.23
1008.11 1008.39 1008.67 1008.95 1009.23 1009.51 1009.79 1010.03 1010.35 1010.63 1010.87 1011.11 1011.31 1011.51 1011.71 1011.95 1012.11 1012.23 1012.47 1012.71 1012.91 1013.11 1013.31 1013.39 1013.51 1013.63 1013.79 1014.03 1014.27 1014.51 1014.71 1014.91 1015.11 1015.39 1015.67 1015.91 1016.19 1016.47 1016.71 1016.95 1017.23 1017.47 1017.67 1017.87 1017.99 1018.19 1018.47 1018.75 1019.03 1019.31 1019.63 1019.95 1020.19 1020.43 1020.59 1020.71 1020.91 1021.15 1021.43 1021.75 1022.03 1022.23 1022.51 1022.71 1022.87 1023.03 1023.15 1023.27 1023.47
1008.11 1008.39 1008.67 1008.99 1009.23 1009.51 1009.79 1010.07 1010.39 1010.67 1010.91 1011.11 1011.35 1011.51 1011.79 1011.99 1012.19 1012.35 1012.51 1012.75 1012.95 1013.15 1013.31 1013.47 1013.55 1013.71 1013.95 1014.15 1014.35 1014.55 1014.79 1014.99 1015.23 1015.51 1015.79 1016.07 1016.35 1016.63 1016.91 1017.19 1017.39 1017.63 1017.87 1018.07 1018.23 1018.39 1018.63 1018.95 1019.19 1019.43 1019.71 1020.07 1020.39 1020.67 1020.83 1020.99 1021.23 1021.47 1021.75 1021.99 1022.27 1022.51 1022.71 1022.91 1023.07 1023.23 1023.35 1023.51 1023.71
1008.15 1008.43 1008.71 1009.03 1009.27 1009.55 1009.83 1010.15 1010.39 1010.67 1010.95 1011.15 1011.35 1011.55 1011.79 1012.03 1012.23 1012.39 1012.55 1012.79 1012.99 1013.15 1013.35 1013.51 1013.71 1013.91 1014.07 1014.23 1014.43 1014.67 1014.87 1015.15 1015.39 1015.67 1015.99 1016.27 1016.51 1016.79 1017.11 1017.35 1017.59 1017.79 1018.07 1018.31 1018.51 1018.67 1018.87 1019.15 1019.39 1019.63 1019.91 1020.23 1020.55 1020.83 1021.11 1021.31 1021.55 1021.79 1022.03 1022.23 1022.47 1022.67 1022.91 1023.11 1023.23 1023.39 1023.55 1023.71 1023.91
1008.19 1008.51 1008.79 1009.07 1009.31 1009.59 1009.87 1010.19 1010.39 1010.67 1010.95 1011.15 1011.39 1011.59 1011.83 1012.07 1012.23 1012.39 1012.59 1012.83 1013.03 1013.23 1013.39 1013.63 1013.87 1014.07 1014.23 1014.39 1014.55 1014.79 1015.07 1015.39 1015.63 1015.91 1016.15 1016.47 1016.71 1016.95 1017.23 1017.51 1017.75 1017.99 1018.23 1018.51 1018.71 1018.95 1019.23 1019.43 1019.67 1019.87 1020.11 1020.43 1020.79 1021.07 1021.35 1021.63 1021.87 1022.07 1022.31 1022.47 1022.67 1022.83 1023.07 1023.27 1023.43 1023.59 1023.75 1023.83 1024.03
1008.23 1008.55 1008.79 1009.07 1009.35 1009.63 1009.91 1010.19 1010.43 1010.71 1010.95 1011.19 1011.39 1011.63 1011.83 1012.07 1012.23 1012.43 1012.63 1012.83 1013.07 1013.31 1013.55 1013.75 1013.95 1014.15 1014.39 1014.55 1014.79 1014.99 1015.27 1015.59 1015.83 1016.07 1016.35 1016.59 1016.87 1017.11 1017.39 1017.67 1017.95 1018.15 1018.39 1018.63 1018.87 1019.19 1019.51 1019.75 1019.95 1020.15 1020.39 1020.71 1021.07 1021.35 1021.59 1021.87 1022.11 1022.31 1022.51 1022.67 1022.91 1023.11 1023.27 1023.43 1023.63 1023.79 1023.91 1023.99 1024.19
1008.23 1008.55 1008.83 1009.11 1009.39 1009.67 1009.95 1010.23 1010.51 1010.75 1010.99 1011.23 1011.43 1011.63 1011.83 1012.07 1012.23 1012.47 1012.67 1012.83 1013.11 1013.35 1013.63 1013.83 1014.07 1014.27 1014.51 1014.75 1014.99 1015.23 1015.51 1015.75 1016.03 1016.31 1016.55 1016.79 1016.99 1017.27 1017.59 1017.91 1018.15 1018.39 1018.59 1018.83 1019.11 1019.39 1019.71 1019.95 1020.23 1020.47 1020.79 1021.07 1021.35 1021.63 1021.83 1022.07 1022.35 1022.55 1022.79 1022.95 1023.19 1023.39 1023.51 1023.67 1023.79 1023.91 1024.03 1024.15 1024.35
1008.23 1008.55 1008.87 1009.11 1009.43 1009.71 1010.03 1010.27 1010.51 1010.79 1011.03 1011.23 1011.43 1011.67 1011.87 1012.07 1012.27 1012.51 1012.75 1012.95 1013.19 1013.43 1013.67 1013.95 1014.23 1014.43 1014.67 1014.91 1015.19 1015.43 1015.67 1015.95 1016.23 1016.51 1016.79 1017.03 1017.23 1017.47 1017.79 1018.07 1018.39 1018.63 1018.83 1019.11 1019.39 1019.67 1019.95 1020.19 1020.51 1020.79 1021.07 1021.35 1021.59 1021.87 1022.11 1022.39 1022.63 1022.87 1023.11 1023.31 1023.47 1023.63 1023.79 1023.91 1023.99 1024.07 1024.19 1024.31 1024.51
1008.19 1008.51 1008.83 1009.15 1009.47 1009.79 1010.07 1010.35 1010.59 1010.83 1011.11 1011.31 1011.51 1011.75 1011.99 1012.19 1012.39 1012.59 1012.87 1013.11 1013.35 1013.55 1013.79 1014.03 1014.31 1014.59 1014.83 1015.11 1015.39 1015.67 1015.95 1016.19 1016.47 1016.75 1016.99 1017.23 1017.47 1017.71 1018.03 1018.31 1018.59 1018.87 1019.11 1019.39 1019.67 1019.95 1020.19 1020.43 1020.75 1021.03 1021.27 1021.51 1021.79 1022.07 1022.39 1022.63 1022.91 1023.15 1023.39 1023.59 1023.75 1023.87 1023.99 1024.07 1024.23 1024.31 1024.39 1024.51 1024.67
1008.11 1008.47 1008.79 1009.15 1009.51 1009.83 1010.15 1010.39 1010.63 1010.87 1011.11 1011.39 1011.63 1011.83 1012.07 1012.31 1012.51 1012.79 1012.99 1013.23 1013.51 1013.75 1013.95 1014.23 1014.47 1014.71 1014.99 1015.27 1015.55 1015.91 1016.23 1016.47 1016.71 1016.95 1017.23 1017.51 1017.79 1018.07 1018.31 1018.55 1018.83 1019.11 1019.39 1019.67 1019.91 1020.15 1020.39 1020.67 1020.99 1021.27 1021.51 1021.79 1022.03 1022.31 1022.55 1022.83 1023.11 1023.39 1023.63 1023.79 1023.95 1024.07 1024.19 1024.27 1024.39 1024.51 1024.59 1024.67 1024.83
1008.19 1008.51 1008.83 1009.23 1009.51 1009.83 1010.19 1010.47 1010.75 1010.99 1011.23 1011.51 1011.75 1011.99 1012.23 1012.47 1012.71 1012.95 1013.19 1013.43 1013.67 1013.95 1014.19 1014.43 1014.67 1014.91 1015.15 1015.43 1015.75 1016.07 1016.47 1016.79 1017.03 1017.23 1017.51 1017.79 1018.07 1018.39 1018.63 1018.83 1019.07 1019.35 1019.63 1019.91 1020.15 1020.39 1020.67 1020.95 1021.23 1021.51 1021.79 1022.03 1022.31 1022.55 1022.79 1023.07 1023.31 1023.55 1023.79 1023.95 1024.07 1024.23 1024.35 1024.47 1024.51 1024.67 1024.79 1024.91 1025.07
1008.27 1008.63 1008.99 1009.35 1009.63 1009.95 1010.23 1010.55 1010.83 1011.11 1011.35 1011.63 1011.91 1012.19 1012.39 1012.63 1012.91 1013.15 1013.39 1013.67 1013.91 1014.15 1014.43 1014.67 1014.95 1015.19 1015.39 1015.63 1015.95 1016.23 1016.63 1016.99 1017.35 1017.63 1017.87 1018.11 1018.43 1018.71 1018.95 1019.19 1019.35 1019.63 1019.91 1020.19 1020.43 1020.67 1020.95 1021.27 1021.55 1021.79 1022.03 1022.27 1022.55 1022.79 1023.07 1023.27 1023.51 1023.71 1023.95 1024.07 1024.23 1024.39 1024.51 1024.67 1024.75 1024.83 1024.95 1025.11 1025.23
1008.27 1008.67 1009.03 1009.39 1009.75 1010.07 1010.35 1010.67 1010.95 1011.19 1011.43 1011.71 1011.99 1012.27 1012.55 1012.79 1013.11 1013.35 1013.63 1013.87 1014.11 1014.39 1014.67 1014.95 1015.23 1015.51 1015.71 1015.95 1016.19 1016.47 1016.79 1017.15 1017.55 1017.95 1018.23 1018.47 1018.75 1019.03 1019.27 1019.51 1019.71 1019.95 1020.23 1020.55 1020.75 1020.91 1021.11 1021.39 1021.75 1022.03 1022.27 1022.51 1022.79 1023.07 1023.31 1023.51 1023.71 1023.87 1024.03 1024.19 1024.39 1024.55 1024.71 1024.87 1024.99 1025.11 1025.23 1025.39 1025.47
1008.39 1008.75 1009.11 1009.51 1009.83 1010.11 1010.39 1010.71 1011.07 1011.35 1011.55 1011.79 1012.07 1012.39 1012.67 1012.99 1013.27 1013.51 1013.83 1014.11 1014.43 1014.71 1014.99 1015.27 1015.55 1015.79 1016.07 1016.31 1016.59 1016.83 1017.07 1017.35 1017.71 1018.07 1018.47 1018.79 1019.07 1019.27 1019.51 1019.79 1020.07 1020.31 1020.59 1020.83 1020.95 1021.07 1021.23 1021.39 1021.71 1022.07 1022.39 1022.67 1022.99 1023.31 1023.55 1023.75 1023.91 1023.99 1024.11 1024.27 1024.43 1024.67 1024.87 1025.11 1025.23 1025.39 1025.51 1025.67 1025.71
1008.47 1008.79 1009.19 1009.55 1009.95 1010.23 1010.51 1010.83 1011.15 1011.43 1011.67 1011.87 1012.19 1012.51 1012.83 1013.15 1013.47 1013.79 1014.07 1014.39 1014.71 1015.03 1015.27 1015.55 1015.79 1016.07 1016.39 1016.63 1016.91 1017.15 1017.39 1017.67 1017.95 1018.23 1018.55 1018.91 1019.23 1019.51 1019.79 1020.07 1020.35 1020.63 1020.83 1020.95 1021.11 1021.23 1021.39 1021.59 1021.79 1022.07 1022.39 1022.79 1023.11 1023.39 1023.67 1023.95 1024.07 1024.19 1024.27 1024.47 1024.63 1024.79 1025.03 1025.31 1025.51 1025.71 1025.79 1025.91 1025.95
1008.55 1008.91 1009.23 1009.63 1009.95 1010.39 1010.67 1010.95 1011.27 1011.55 1011.79 1011.99 1012.31 1012.67 1013.03 1013.39 1013.67 1014.03 1014.35 1014.67 1014.99 1015.27 1015.55 1015.83 1016.11 1016.39 1016.67 1016.91 1017.11 1017.39 1017.67 1017.95 1018.23 1018.47 1018.71 1018.95 1019.31 1019.63 1019.95 1020.23 1020.51 1020.79 1020.95 1021.07 1021.23 1021.39 1021.51 1021.79 1022.03 1022.27 1022.59 1022.95 1023.27 1023.55 1023.79 1024.07 1024.23 1024.39 1024.51 1024.71 1024.87 1025.03 1025.23 1025.51 1025.79 1025.95 1026.03 1026.15 1026.19
1008.63 1008.95 1009.27 1009.63 1010.07 1010.47 1010.83 1011.11 1011.43 1011.71 1011.91 1012.07 1012.39 1012.79 1013.23 1013.59 1013.95 1014.27 1014.59 1014.91 1015.19 1015.51 1015.79 1016.07 1016.39 1016.67 1016.91 1017.19 1017.43 1017.67 1017.87 1018.15 1018.43 1018.67 1018.91 1019.11 1019.43 1019.75 1020.07 1020.31 1020.63 1020.87 1021.07 1021.19 1021.35 1021.51 1021.75 1021.99 1022.27 1022.55 1022.79 1023.11 1023.43 1023.67 1023.91 1024.15 1024.39 1024.59 1024.79 1024.95 1025.15 1025.35 1025.51 1025.75 1025.95 1026.11 1026.23 1026.35 1026.39
1008.67 1009.03 1009.35 1009.67 1010.07 1010.51 1010.95 1011.27 1011.63 1011.91 1012.07 1012.31 1012.63 1013.03 1013.43 1013.79 1014.15 1014.51 1014.79 1015.11 1015.39 1015.67 1015.99 1016.31 1016.59 1016.83 1017.15 1017.47 1017.71 1017.95 1018.11 1018.39 1018.63 1018.83 1019.07 1019.35 1019.63 1019.91 1020.19 1020.47 1020.75 1021.03 1021.23 1021.35 1021.51 1021.71 1021.95 1022.27 1022.51 1022.79 1023.03 1023.23 1023.51 1023.79 1024.03 1024.27 1024.51 1024.79 1025.03 1025.23 1025.43 1025.63 1025.79 1025.99 1026.19 1026.35 1026.47 1026.55 1026.63
1008.79 1009.11 1009.47 1009.79 1010.11 1010.55 1010.99 1011.43 1011.79 1012.07 1012.27 1012.51 1012.83 1013.23 1013.67 1014.03 1014.35 1014.67 1014.95 1015.27 1015.59 1015.87 1016.11 1016.39 1016.71 1017.07 1017.39 1017.67 1017.87 1018.11 1018.39 1018.63 1018.83 1018.99 1019.19 1019.43 1019.75 1020.07 1020.39 1020.63 1020.91 1021.19 1021.39 1021.51 1021.67 1021.95 1022.23 1022.51 1022.75 1022.99 1023.23 1023.39 1023.67 1023.95 1024.23 1024.51 1024.75 1024.99 1025.23 1025.51 1025.67 1025.87 1026.07 1026.23 1026.39 1026.51 1026.63 1026.71 1026.79
1008.87 1009.23 1009.59 1009.91 1010.27 1010.67 1011.15 1011.59 1011.95 1012.23 1012.47 1012.71 1013.11 1013.47 1013.83 1014.23 1014.59 1014.91 1015.19 1015.47 1015.79 1016.07 1016.35 1016.55 1016.87 1017.23 1017.51 1017.79 1018.03 1018.23 1018.51 1018.79 1018.99 1019.19 1019.35 1019.55 1019.87 1020.23 1020.55 1020.83 1021.11 1021.39 1021.63 1021.75 1021.95 1022.23 1022.47 1022.75 1022.95 1023.15 1023.39 1023.63 1023.87 1024.19 1024.47 1024.75 1024.99 1025.23 1025.47 1025.71 1025.91 1026.07 1026.27 1026.39 1026.55 1026.71 1026.79 1026.87 1026.95
1009.07 1009.39 1009.75 1010.07 1010.51 1010.95 1011.39 1011.79 1012.15 1012.43 1012.67 1012.95 1013.35 1013.67 1014.07 1014.43 1014.79 1015.11 1015.39 1015.67 1015.95 1016.23 1016.51 1016.79 1017.11 1017.39 1017.71 1017.99 1018.23 1018.51 1018.67 1018.87 1019.15 1019.39 1019.55 1019.71 1019.99 1020.39 1020.75 1021.03 1021.35 1021.59 1021.79 1021.95 1022.23 1022.47 1022.71 1022.95 1023.15 1023.39 1023.59 1023.87 1024.19 1024.51 1024.79 1024.95 1025.23 1025.51 1025.71 1025.95 1026.15 1026.35 1026.51 1026.59 1026.79 1026.91 1026.99 1027.07 1027.11
1009.23 1009.59 1009.91 1010.31 1010.71 1011.15 1011.59 1011.99 1012.35 1012.67 1012.95 1013.23 1013.55 1013.91 1014.27 1014.67 1015.03 1015.39 1015.67 1015.95 1016.15 1016.39 1016.67 1016.95 1017.27 1017.59 1017.87 1018.15 1018.39 1018.67 1018.95 1019.11 1019.35 1019.55 1019.71 1019.91 1020.15 1020.47 1020.83 1021.23 1021.55 1021.79 1022.03 1022.23 1022.43 1022.67 1022.95 1023.15 1023.39 1023.59 1023.83 1024.11 1024.43 1024.75 1024.99 1025.23 1025.47 1025.75 1026.03 1026.23 1026.43 1026.59 1026.75 1026.87 1026.95 1027.11 1027.19 1027.27 1027.31
1009.39 1009.75 1010.11 1010.51 1010.91 1011.35 1011.79 1012.19 1012.55 1012.91 1013.23 1013.51 1013.83 1014.15 1014.47 1014.79 1015.19 1015.55 1015.91 1016.19 1016.39 1016.63 1016.91 1017.19 1017.51 1017.79 1018.07 1018.31 1018.51 1018.79 1019.07 1019.35 1019.59 1019.79 1019.95 1020.11 1020.27 1020.55 1020.91 1021.31 1021.75 1022.03 1022.23 1022.47 1022.67 1022.91 1023.11 1023.35 1023.55 1023.79 1024.07 1024.35 1024.67 1024.95 1025.19 1025.39 1025.67 1025.95 1026.23 1026.51 1026.67 1026.83 1026.95 1027.11 1027.19 1027.27 1027.35 1027.39 1027.47
1009.47 1009.87 1010.27 1010.67 1011.03 1011.47 1011.91 1012.39 1012.79 1013.15 1013.47 1013.79 1014.11 1014.43 1014.71 1015.03 1015.39 1015.71 1016.03 1016.27 1016.55 1016.87 1017.23 1017.51 1017.79 1018.07 1018.39 1018.59 1018.79 1019.03 1019.23 1019.51 1019.79 1020.03 1020.15 1020.27 1020.43 1020.67 1021.03 1021.51 1021.91 1022.23 1022.47 1022.67 1022.91 1023.11 1023.31 1023.51 1023.79 1023.99 1024.27 1024.59 1024.95 1025.23 1025.47 1025.67 1025.95 1026.23 1026.47 1026.67 1026.87 1027.03 1027.11 1027.23 1027.27 1027.39 1027.47 1027.51 1027.51
1009.51 1009.87 1010.31 1010.75 1011.11 1011.51 1011.95 1012.47 1012.95 1013.35 1013.67 1013.95 1014.31 1014.67 1014.99 1015.35 1015.67 1015.95 1016.19 1016.39 1016.67 1017.03 1017.39 1017.75 1018.07 1018.35 1018.67 1018.95 1019.23 1019.39 1019.51 1019.71 1019.95 1020.19 1020.39 1020.51 1020.59 1020.83 1021.23 1021.71 1022.15 1022.51 1022.71 1022.91 1023.11 1023.31 1023.51 1023.71 1023.95 1024.19 1024.47 1024.79 1025.11 1025.39 1025.67 1025.87 1026.19 1026.39 1026.63 1026.79 1026.95 1027.11 1027.19 1027.23 1027.31 1027.39 1027.43 1027.47 1027.47
1009.55 1009.91 1010.27 1010.71 1011.11 1011.51 1011.95 1012.51 1013.03 1013.51 1013.87 1014.15 1014.47 1014.79 1015.23 1015.59 1015.95 1016.19 1016.35 1016.47 1016.79 1017.15 1017.51 1017.87 1018.23 1018.59 1018.87 1019.19 1019.47 1019.71 1019.87 1019.95 1020.07 1020.31 1020.55 1020.71 1020.83 1021.07 1021.43 1021.95 1022.39 1022.71 1022.95 1023.11 1023.31 1023.47 1023.67 1023.91 1024.11 1024.39 1024.63 1024.95 1025.27 1025.59 1025.83 1026.07 1026.35 1026.55 1026.75 1026.91 1027.11 1027.23 1027.23 1027.27 1027.31 1027.35 1027.39 1027.39 1027.39
1009.67 1009.99 1010.35 1010.75 1011.11 1011.43 1011.87 1012.43 1013.03 1013.51 1013.95 1014.31 1014.67 1015.03 1015.39 1015.71 1016.11 1016.39 1016.51 1016.59 1016.87 1017.23 1017.67 1018.07 1018.43 1018.83 1019.15 1019.39 1019.67 1019.95 1020.19 1020.31 1020.39 1020.51 1020.79 1020.99 1021.19 1021.39 1021.67 1022.07 1022.55 1022.91 1023.15 1023.31 1023.51 1023.67 1023.87 1024.07 1024.31 1024.51 1024.79 1025.11 1025.43 1025.71 1025.95 1026.23 1026.51 1026.71 1026.91 1027.07 1027.23 1027.35 1027.39 1027.39 1027.39 1027.39 1027.39 1027.35 1027.35
1009.83 1010.15 1010.47 1010.87 1011.19 1011.47 1011.87 1012.47 1013.03 1013.51 1013.99 1014.43 1014.83 1015.23 1015.59 1015.91 1016.23 1016.51 1016.71 1016.87 1017.07 1017.35 1017.71 1018.19 1018.67 1019.07 1019.39 1019.59 1019.87 1020.19 1020.47 1020.67 1020.75 1020.83 1021.07 1021.35 1021.51 1021.67 1021.87 1022.23 1022.67 1023.07 1023.31 1023.51 1023.67 1023.87 1024.07 1024.27 1024.51 1024.71 1024.95 1025.27 1025.55 1025.83 1026.07 1026.35 1026.63 1026.83 1026.99 1027.15 1027.31 1027.39 1027.47 1027.47 1027.43 1027.39 1027.39 1027.31 1027.23
1009.99 1010.35 1010.71 1011.11 1011.35 1011.63 1012.03 1012.59 1013.15 1013.63 1014.03 1014.47 1014.95 1015.39 1015.79 1016.07 1016.39 1016.67 1016.95 1017.19 1017.39 1017.59 1017.91 1018.31 1018.79 1019.23 1019.55 1019.79 1020.07 1020.39 1020.67 1020.95 1021.11 1021.23 1021.43 1021.67 1021.91 1022.07 1022.19 1022.43 1022.79 1023.19 1023.47 1023.67 1023.83 1024.03 1024.23 1024.43 1024.67 1024.95 1025.23 1025.51 1025.75 1025.95 1026.15 1026.39 1026.63 1026.91 1027.11 1027.23 1027.27 1027.39 1027.43 1027.47 1027.43 1027.43 1027.39 1027.39 1027.27
1010.19 1010.55 1010.95 1011.27 1011.51 1011.79 1012.23 1012.79 1013.35 1013.79 1014.19 1014.59 1015.07 1015.51 1015.87 1016.19 1016.47 1016.79 1017.11 1017.39 1017.67 1017.91 1018.23 1018.59 1019.03 1019.43 1019.79 1020.07 1020.31 1020.59 1020.87 1021.19 1021.43 1021.67 1021.79 1021.99 1022.23 1022.39 1022.51 1022.71 1022.99 1023.31 1023.59 1023.79 1023.95 1024.15 1024.39 1024.63 1024.87 1025.15 1025.43 1025.71 1025.95 1026.07 1026.23 1026.39 1026.67 1026.91 1027.11 1027.23 1027.27 1027.31 1027.39 1027.43 1027.43 1027.43 1027.47 1027.47 1027.43
Wind_Speed
8 8 7 6 6 5 5 4 5 5 5 5 5 5 5 5 5 5 5 4 4 4 4 4 4 4 5 7 8 9 9 9 8 8 8 8 7 7 6 7 7 7 7 6 6 5 5 5 4 3 3 3 3 3 3 3 5 5 6 6 5 5 6 7 7 7 7 7 6
9 9 8 7 6 5 5 4 5 5 5 5 5 5 5 5 5 5 5 4 4 4 4 4 4 5 6 7 8 8 9 9 9 9 8 8 7 7 6 6 6 7 7 6 6 5 4 5 4 3 3 3 3 3 3 3 5 6 7 7 6 5 6 7 7 7 8 7 6
9 9 8 8 7 6 6 5 5 6 5 5 5 5 5 5 4 4 4 4 4 4 4 4 5 5 6 7 7 7 8 8 9 9 8 7 7 7 6 6 6 6 6 6 5 5 5 5 4 4 4 3 4 4 4 4 5 7 7 7 5 5 5 6 6 6 6 6 6
9 9 8 8 9 8 7 6 6 7 6 5 5 5 4 4 4 4 4 4 4 4 4 4 5 5 6 6 7 7 7 8 9 8 8 7 7 7 7 6 6 6 6 6 6 6 6 6 5 4 4 5 6 5 5 5 6 6 6 5 5 5 5 5 5 5 5 6 6
9 9 8 8 9 9 8 7 8 7 7 6 5 5 4 4 3 4 4 4 4 4 5 5 5 5 5 6 7 7 8 8 8 7 7 6 6 6 6 6 6 6 6 6 7 7 7 7 5 4 5 5 5 5 5 6 7 7 6 5 5 5 5 6 5 5 5 6 6
9 9 8 8 9 8 7 7 9 8 7 6 6 6 5 4 4 4 5 5 5 5 6 7 6 6 6 7 7 7 8 8 7 7 7 6 6 6 6 6 6 6 6 7 8 8 8 7 6 5 5 5 5 6 7 8 8 8 7 6 5 5 5 6 5 6 6 7 7
9 9 9 8 9 8 8 8 8 8 8 7 8 8 7 6 5 6 6 5 5 5 6 6 6 6 6 7 7 7 7 7 7 7 7 7 6 6 6 6 7 7 7 8 9 8 8 7 6 6 6 6 5 6 7 8 8 8 8 7 6 6 6 7 6 6 7 9 9
8 9 9 9 9 9 9 9 9 8 8 7 8 8 8 7 7 7 7 6 5 5 5 5 6 7 7 7 7 7 7 7 7 7 7 7 7 7 7 7 7 8 8 9 9 8 8 7 6 6 6 6 5 6 7 9 10 10 10 9 7 6 6 6 6 7 8 10 10
8 8 9 9 9 10 10 10 10 9 8 7 8 8 8 8 8 8 7 6 5 5 5 5 7 7 8 8 8 8 7 7 7 7 7 7 8 8 8 8 8 9 9 9 10 10 9 7 6 6 6 6 6 7 8 10 12 12 11 9 8 7 7 7 8 8 9 10 10
8 9 9 9 9 10 10 10 10 10 9 8 8 8 8 8 8 7 6 5 5 5 6 6 7 7 8 8 8 7 7 7 8 8 8 8 9 9 9 9 9 10 10 9 10 10 10 8 8 8 7 7 8 9 10 11 12 12 11 8 9 10 10 9 9 9 10 10 11
9 9 9 9 10 10 10 10 9 9 9 8 8 8 8 8 7 6 6 6 6 6 6 7 7 8 8 7 7 7 7 7 7 8 9 9 10 10 10 10 10 11 10 10 10 9 9 9 10 10 10 9 9 10 11 12 13 13 12 10 11 11 11 10 10 9 9 10 11
9 9 9 10 10 10 10 10 9 8 8 9 8 8 8 7 7 7 7 7 7 7 7 7 8 8 7 7 7 7 7 8 8 9 9 10 10 10 11 11 11 11 11 10 10 9 9 10 12 12 12 11 9 9 10 12 13 13 13 12 12 11 11 11 10 9 8 9 11
10 10 10 10 11 11 10 10 8 8 8 9 8 8 7 7 7 8 8 8 8 7 7 7 7 7 7 7 7 7 8 8 9 9 9 10 11 11 11 11 11 11 10 10 10 10 10 12 13 14 13 11 9 9 11 12 13 13 13 12 12 11 11 11 10 9 9 10 10
10 10 11 11 11 11 10 9 8 8 8 9 8 8 7 7 7 8 8 9 8 7 7 7 6 6 7 8 8 9 9 9 10 10 11 11 11 12 12 11 11 11 10 10 10 11 12 13 14 14 14 13 12 11 11 12 12 12 12 12 12 12 11 10 10 10 10 10 10
11 11 11 11 11 10 10 9 8 8 8 9 8 8 7 7 7 7 8 9 8 8 7 7 6 6 7 9 9 10 10 10 11 12 12 12 12 12 12 12 12 12 11 11 11 12 13 14 14 14 14 14 14 13 12 12 12 12 12 12 12 12 11 10 10 10 10 10 10
11 11 11 11 11 10 9 9 8 7 8 8 8 8 8 7 7 8 8 9 8 7 7 7 7 7 8 9 10 11 11 11 12 12 13 12 13 13 13 13 13 13 13 13 13 13 13 13 13 14 15 15 14 14 13 13 12 12 12 12 12 12 11 11 10 10 10 10 9
12 12 11 12 11 11 10 9 8 8 8 9 9 8 8 7 7 8 9 9 8 8 8 9 8 8 9 9 10 10 11 11 11 12 12 13 13 14 14 14 13 14 14 15 14 14 14 13 13 14 14 15 14 14 13 13 13 12 13 13 12 12 11 11 10 10 10 10 10
12 12 12 12 12 11 10 10 9 9 9 10 9 9 8 8 8 8 9 9 9 10 10 10 9 9 10 10 9 9 10 11 11 12 12 13 14 14 14 14 14 14 14 15 15 15 15 14 14 14 14 14 14 14 13 13 13 13 13 12 12 11 10 10 9 9 9 10 9
13 12 12 12 12 11 11 11 11 10 10 10 10 9 9 9 9 9 9 9 10 11 11 11 10 10 11 11 10 10 10 11 12 13 13 13 14 15 15 15 14 14 14 15 15 15 15 15 15 14 14 14 14 14 14 14 13 13 12 12 11 10 9 9 8 8 8 9 9
13 13 12 12 12 12 11 11 11 11 10 10 10 10 10 10 10 11 11 10 11 11 12 12 11 11 12 12 12 12 11 11 13 13 14 14 14 15 15 15 15 15 14 14 15 15 15 15 15 15 15 15 15 15 15 14 13 13 12 11 10 9 9 8 8 8 8 8 8
13 13 13 12 13 12 12 12 12 11 11 11 11 11 11 11 11 11 11 11 11 12 12 12 13 13 13 14 14 13 12 11 12 13 14 14 15 15 15 15 15 14 14 14 14 15 15 16 15 15 15 15 15 15 14 14 13 12 11 10 10 9 9 9 8 8 8 8 8
13 12 12 12 13 13 13 12 12 12 12 11 11 11 11 11 11 11 11 11 12 12 12 12 13 14 14 14 14 14 13 11 12 13 13 14 14 13 13 13 14 14 14 14 14 15 15 15 15 15 14 14 14 14 14 13 13 12 12 11 11 10 10 9 9 8 8 7 7
13 13 13 13 13 13 14 13 13 13 13 13 12 12 12 12 12 12 12 12 12 12 12 12 12 13 14 15 15 15 14 14 13 13 13 13 13 13 13 12 13 14 13 13 13 14 14 14 14 14 13 13 13 13 13 13 12 12 12 12 12 11 11 10 10 9 8 7 6
14 13 13 12 14 15 15 14 14 14 14 14 13 13 13 13 13 12 12 12 12 12 12 11 12 13 14 15 16 16 16 16 15 15 14 14 14 13 13 12 12 12 11 10 11 13 13 13 12 12 12 12 12 12 12 11 11 11 12 12 12 11 11 11 10 10 9 9 6
15 15 14 14 15 15 15 15 14 14 14 14 14 14 14 13 13 13 13 13 13 13 13 13 13 13 13 14 15 15 16 17 17 16 16 15 14 13 12 11 11 10 9 11 16 18 17 15 13 12 12 12 12 11 11 10 10 10 11 11 11 11 11 11 11 10 10 9 7
16 16 16 16 16 15 15 15 15 14 14 15 15 15 14 14 13 14 14 14 14 14 14 14 13 13 13 13 14 14 15 15 15 16 16 15 15 14 12 11 9 8 9 14 19 21 21 20 18 16 13 12 12 11 10 9 10 10 11 11 11 11 11 10 10 9 9 8 7
17 17 17 17 16 16 15 15 15 15 15 15 15 15 14 14 13 14 14 14 14 14 13 13 13 13 13 13 14 14 14 13 14 15 16 16 15 14 13 11 9 9 11 18 21 22 22 22 21 19 16 12 11 10 10 9 10 10 10 10 10 10 10 10 9 9 8 7 7
17 18 18 18 17 16 16 15 15 15 15 16 16 15 15 15 15 15 15 14 14 13 12 11 11 11 10 11 13 14 15 14 14 14 15 15 15 14 13 11 10 12 15 21 23 23 23 23 22 21 18 14 11 10 10 10 10 9 9 9 9 10 9 9 8 8 7 7 7
18 18 18 18 18 17 16 16 15 15 15 16 16 16 16 15 15 15 15 14 14 12 11 10 9 9 10 11 12 14 14 14 13 13 14 15 15 14 13 13 13 16 19 23 24 24 24 23 23 22 20 16 11 9 8 9 9 9 8 8 8 8 8 8 7 7 7 7 7
18 18 18 18 18 17 17 16 15 15 15 15 16 16 16 15 15 15 14 14 13 12 11 10 10 11 12 13 13 13 13 13 13 13 15 16 16 15 14 14 14 16 20 24 24 24 24 23 23 22 21 18 14 10 9 8 9 9 8 8 8 8 8 8 8 7 7 7 7
18 18 18 18 18 18 17 16 15 15 15 15 16 16 16 15 15 14 13 13 12 12 12 13 14 14 14 13 13 13 13 13 13 14 15 17 17 16 16 15 15 17 20 24 24 24 24 23 23 23 22 20 15 11 9 9 9 9 9 9 9 9 8 8 8 7 7 7 7
18 18 18 18 18 17 17 16 16 15 16 16 16 16 15 15 14 13 13 13 13 14 15 15 16 15 15 14 13 14 14 14 14 14 15 16 17 17 17 16 16 17 20 24 24 24 24 24 24 23 23 21 16 13 11 11 10 10 10 10 9 9 8 7 7 7 7 8 7
18 18 18 18 18 17 17 16 16 16 16 16 16 16 16 15 14 14 13 13 14 15 15 16 16 15 15 14 14 14 14 15 15 16 17 17 18 18 17 16 15 17 21 24 24 24 24 24 25 25 24 22 17 14 12 12 11 10 9 9 8 8 8 7 7 7 7 7 7
19 19 19 19 18 18 17 16 16 16 16 16 16 16 16 16 15 14 13 13 13 13 14 14 14 14 14 14 14 14 14 14 15 16 17 17 18 18 17 14 13 17 21 24 24 24 25 25 25 25 24 21 15 13 12 12 11 10 9 8 7 7 6 6 6 6 6 6 5
20 20 20 19 19 18 18 17 17 16 16 16 16 16 15 15 15 15 14 14 14 14 14 13 13 13 13 13 13 14 15 15 15 15 16 16 18 18 17 15 15 19 23 24 24 25 25 25 25 24 22 18 13 11 12 12 11 10 9 9 7 6 6 5 5 5 5 4 4
21 21 21 20 20 20 19 18 17 17 17 17 16 16 15 15 14 14 15 16 16 16 15 14 14 14 14 13 13 13 14 15 16 16 16 16 18 18 18 17 17 20 23 24 24 25 25 25 25 23 20 15 11 10 10 10 10 10 9 9 8 7 6 6 5 5 5 4 4
21 21 21 21 21 21 21 20 19 18 17 17 17 16 16 15 14 14 14 16 16 16 16 15 15 14 14 14 13 12 12 14 15 16 16 16 17 18 19 18 18 19 22 24 24 24 25 25 24 22 18 13 11 10 9 9 8 8 8 8 7 6 5 5 5 6 6 6 6
20 21 21 21 21 21 21 21 20 19 18 17 16 16 16 15 14 14 14 15 16 17 16 16 15 15 14 14 13 13 13 13 14 16 16 16 17 18 18 18 17 18 20 23 24 24 24 24 23 20 17 12 11 10 9 8 7 7 7 7 5 4 4 3 3 4 6 8 10
19 20 20 20 21 21 21 21 20 19 19 18 17 16 15 14 13 13 13 14 15 16 17 17 16 15 14 15 14 14 13 13 14 15 16 16 16 17 18 17 16 17 19 22 23 23 23 23 23 21 17 13 10 9 8 8 7 7 6 5 5 4 3 2 2 2 4 8 13
19 20 20 20 20 21 21 21 20 19 18 18 17 16 15 14 14 13 13 13 14 16 16 17 17 16 15 15 15 15 15 14 14 14 15 15 16 18 18 17 16 17 19 21 23 23 23 23 22 20 17 12 9 8 7 7 7 7 6 5 5 4 3 3 2 2 3 5 10
19 19 20 19 20 20 21 21 20 18 18 18 17 16 15 15 15 14 14 14 14 15 15 15 16 16 15 15 15 15 15 15 14 14 14 15 16 16 16 15 16 16 17 20 22 22 22 22 22 20 16 11 8 7 7 7 7 7 6 5 5 4 4 3 3 3 3 3 3
Wind_Direction
171 171 169 165 163 162 159 153 149 150 152 155 155 157 159 162 164 167 168 169 170 169 166 161 157 152 148 151 158 163 166 166 164 165 167 169 171 173 173 171 167 166 166 165 161 159 155 148 136 120 103 98 95 91 90 99 102 101 99 100 103 103 101 97 94 91 88 86 86
171 169 166 161 159 156 152 146 146 148 151 154 154 155 158 161 163 164 165 166 163 157 151 146 144 143 146 152 157 159 160 160 160 162 164 166 169 170 170 167 164 164 162 159 155 150 142 132 123 112 102 98 96 93 92 98 102 101 101 102 104 102 97 94 92 91 89 85 84
170 167 164 161 159 158 154 150 148 147 147 148 149 152 156 160 159 159 158 156 147 141 139 139 140 141 144 149 153 155 156 156 157 159 161 164 165 165 165 163 162 160 156 150 144 136 126 118 111 105 102 101 99 98 96 92 97 99 100 100 99 98 96 94 92 90 87 84 82
167 166 164 162 160 159 157 151 146 145 145 145 143 146 150 155 151 148 144 139 136 137 139 140 139 140 143 145 148 150 151 151 152 154 156 159 159 160 161 161 157 151 143 136 127 119 113 107 100 97 97 98 99 100 100 96 94 94 94 91 91 92 93 93 91 89 87 85 82
167 166 164 161 159 157 153 145 144 144 144 142 144 147 148 147 141 137 134 135 139 140 140 136 137 139 141 142 143 144 144 144 146 148 150 150 152 155 155 150 142 135 130 124 118 114 108 102 97 93 93 93 94 97 99 100 96 92 88 82 83 86 89 90 89 88 88 87 83
167 164 161 156 154 152 147 141 142 143 144 144 146 149 151 149 142 140 140 142 139 135 133 132 133 136 138 140 140 140 140 141 143 143 143 142 144 143 138 129 127 126 123 120 116 112 108 104 99 94 92 91 91 94 98 100 98 94 90 84 80 81 84 86 87 87 87 88 86
163 160 156 151 151 148 143 138 141 142 143 145 149 152 153 150 145 142 141 138 134 133 133 133 136 138 141 142 141 140 140 140 140 139 138 136 134 130 125 121 122 121 119 117 115 111 107 102 99 96 95 93 92 94 96 100 99 97 94 89 84 83 84 86 87 88 89 89 87
157 155 152 149 148 144 140 139 141 142 145 149 153 153 151 146 142 139 137 133 136 138 138 137 140 143 144 146 144 142 140 139 139 137 134 131 128 123 119 118 115 112 110 110 109 106 102 98 97 97 97 95 94 94 95 98 98 97 95 92 89 86 84 86 86 87 88 87 85
153 151 147 145 145 142 140 140 142 144 146 149 151 150 147 143 141 139 137 137 140 139 137 136 141 143 145 145 143 141 140 139 137 135 131 128 124 120 117 114 110 106 104 103 103 102 100 96 94 94 94 95 95 96 97 98 97 96 95 93 91 87 85 83 83 84 84 83 82
151 148 144 142 142 140 138 139 140 141 142 143 145 144 143 141 140 140 139 138 135 133 134 137 141 143 144 143 141 139 137 134 132 130 128 126 123 120 118 115 112 109 106 104 102 100 98 96 94 92 92 93 96 97 98 97 97 96 94 93 92 90 86 82 82 82 82 83 82
148 145 143 142 140 138 136 137 138 138 138 139 140 141 141 140 139 137 133 129 129 131 135 139 143 144 143 140 136 132 130 128 127 126 125 123 121 119 116 114 112 111 110 108 105 102 100 99 98 96 94 93 95 96 97 97 96 96 95 95 94 91 89 85 84 84 85 86 86
144 142 140 139 138 137 136 137 138 137 137 138 139 139 139 138 135 131 127 126 128 131 136 141 144 143 140 133 128 124 122 121 121 121 119 117 114 112 111 110 109 109 108 109 107 105 104 104 104 101 98 95 94 96 97 98 98 97 97 96 94 93 91 90 88 87 88 90 90
141 139 138 137 137 137 136 137 137 137 138 138 139 138 136 133 130 127 126 127 129 132 136 141 141 137 132 125 122 120 120 119 118 116 113 110 109 107 106 106 105 105 104 104 105 106 107 107 106 104 102 98 96 96 97 98 98 98 97 96 95 94 93 93 92 91 91 92 92
138 138 137 137 137 137 137 137 137 138 138 139 138 135 131 128 127 127 127 128 130 133 136 137 133 127 122 121 120 120 119 116 113 110 107 106 106 106 105 104 103 102 101 100 101 104 106 107 106 105 103 101 98 97 95 95 96 97 98 98 98 97 97 96 95 95 94 93 92
137 137 138 138 138 138 137 137 137 137 138 137 135 132 129 128 128 128 128 129 131 132 132 129 121 116 114 117 118 117 114 111 109 108 107 106 106 106 105 104 102 102 101 100 99 100 102 104 104 104 103 101 100 97 95 94 95 96 98 100 100 100 99 99 98 98 98 97 95
137 138 138 139 139 139 139 139 137 137 137 135 133 131 130 129 129 129 129 130 130 128 125 121 117 114 113 112 112 111 110 109 108 109 109 108 108 107 106 105 104 103 103 102 99 98 97 98 99 100 100 100 99 97 96 96 96 96 97 99 99 99 100 100 100 100 99 98 96
139 140 141 141 140 140 139 138 137 136 136 134 133 131 131 131 131 131 131 131 129 126 123 120 119 116 114 111 109 108 108 108 109 109 110 111 110 108 107 106 106 106 105 104 102 100 98 97 96 97 97 98 98 98 97 97 96 96 96 96 97 98 100 101 101 100 99 97 96
141 142 142 142 140 139 138 136 135 135 134 133 133 132 131 131 132 131 130 129 128 125 123 120 117 114 112 110 108 107 108 109 109 109 110 111 110 109 108 107 106 106 106 104 103 103 101 99 98 97 97 97 98 97 97 96 95 94 94 94 95 96 97 97 98 99 99 98 97
143 144 143 142 139 137 136 134 133 133 133 132 131 130 130 130 130 129 127 126 125 124 122 118 114 111 109 108 107 106 106 107 108 108 108 109 108 108 107 106 105 104 104 103 103 102 102 101 101 100 100 99 99 98 96 96 95 94 93 93 92 92 92 91 92 94 96 97 98
145 145 144 141 138 135 133 132 131 131 131 129 128 127 127 127 126 125 124 123 122 120 118 116 114 111 109 107 105 104 104 105 107 107 107 106 106 107 107 107 105 104 103 102 102 103 103 102 102 103 103 102 101 100 98 97 96 94 93 91 90 88 87 86 86 87 89 93 95
145 144 142 139 136 133 132 130 129 127 126 124 124 123 123 121 120 120 120 120 118 117 115 114 114 112 110 108 105 104 103 103 104 105 105 104 104 105 106 106 106 105 104 103 104 104 105 104 104 104 104 103 103 102 101 100 98 95 93 91 87 85 82 82 81 81 81 84 89
141 139 137 134 132 130 129 127 125 124 121 120 119 118 117 116 115 114 114 114 114 112 112 112 112 112 111 109 107 105 103 101 101 101 102 102 101 102 103 104 105 105 104 104 104 104 104 104 104 104 104 103 102 102 102 102 100 97 94 90 86 82 77 75 74 73 73 74 80
136 133 130 128 126 125 124 123 122 121 119 117 116 115 113 113 112 111 111 110 110 109 108 107 108 108 109 109 108 107 105 101 99 97 97 98 98 98 98 99 100 101 102 103 104 105 105 105 104 103 102 102 101 101 101 102 101 99 96 91 86 80 74 70 67 65 63 60 64
131 129 127 125 124 123 123 122 121 120 119 117 116 114 113 112 111 110 108 107 106 105 105 104 104 104 105 106 106 107 106 105 102 99 97 96 97 97 96 95 96 97 100 104 109 111 111 110 107 104 103 102 101 100 100 101 101 100 98 94 89 82 75 68 64 60 57 52 49
127 126 124 124 124 124 123 123 122 121 120 118 116 114 113 112 110 109 106 104 103 103 103 103 103 103 103 103 104 105 106 107 106 105 102 99 99 98 98 96 95 97 102 109 114 115 115 114 113 111 108 105 103 102 100 98 98 98 96 94 91 86 79 70 64 60 56 51 44
126 125 124 124 124 123 123 123 122 121 120 118 115 113 112 110 109 107 105 104 103 103 104 104 104 104 104 104 105 105 105 106 107 108 107 105 103 101 99 99 99 101 109 116 117 116 114 114 113 112 111 109 107 104 100 94 92 91 91 90 89 87 83 76 69 62 57 53 47
127 127 126 125 123 123 122 122 121 121 119 117 115 113 112 111 109 107 106 105 105 104 104 103 104 104 105 105 106 106 106 106 107 108 108 108 107 105 104 103 105 108 114 119 117 115 113 112 111 110 109 107 106 104 101 97 91 88 86 84 84 84 84 83 78 71 64 55 50
129 129 127 125 124 123 122 121 121 120 119 117 115 113 112 111 110 109 109 108 107 106 105 104 104 105 104 104 105 107 108 109 109 108 108 108 107 107 107 107 109 114 117 118 115 113 112 111 110 110 109 107 105 103 100 97 93 88 85 83 83 83 83 83 81 77 71 63 57
130 129 127 126 124 123 122 121 121 120 118 116 114 113 112 112 112 111 111 110 109 109 109 109 107 105 104 105 107 107 108 109 110 110 109 107 106 106 106 108 110 113 115 115 114 112 112 111 111 110 109 107 104 100 96 94 92 89 86 84 83 83 83 83 82 80 77 73 67
129 128 127 126 124 123 122 121 121 120 117 115 114 113 113 113 113 112 112 111 111 111 112 113 110 109 109 110 110 109 109 109 110 111 110 109 107 106 107 108 110 113 114 114 113 112 112 112 110 108 106 103 100 96 93 92 91 90 89 87 86 86 86 86 85 83 82 81 76
128 127 126 124 122 121 120 120 119 118 117 115 115 114 113 113 113 112 112 112 112 111 111 110 110 110 111 112 112 112 111 111 111 111 110 109 108 108 107 108 109 112 113 114 113 113 112 111 109 106 104 101 98 95 94 93 92 92 91 91 90 89 89 88 86 85 85 85 84
127 125 124 121 120 119 118 118 118 117 115 114 114 113 112 111 111 111 111 112 112 111 111 110 111 111 111 111 111 112 112 113 113 112 112 111 110 109 108 108 110 112 114 115 114 113 112 110 107 105 102 100 97 96 95 94 93 92 92 92 92 92 93 93 91 90 89 89 91
126 124 122 119 118 117 117 117 116 115 114 113 112 112 112 111 110 110 110 111 112 112 113 112 113 113 114 114 114 113 113 113 113 113 113 112 112 111 110 108 110 113 115 116 114 113 112 110 107 105 103 101 99 97 97 96 95 94 93 92 92 93 95 98 99 98 97 96 97
125 123 121 120 119 118 117 116 115 114 113 112 112 112 112 113 113 113 113 113 112 111 110 110 111 112 113 114 114 114 114 113 113 114 114 113 112 111 110 109 112 116 117 117 115 114 112 110 108 106 104 101 99 97 97 97 97 97 97 96 96 96 99 102 105 107 108 107 106
128 126 124 122 121 120 118 117 116 115 114 113 112 112 113 114 115 116 116 115 112 109 107 106 106 107 107 107 110 112 113 114 114 114 114 114 112 110 109 110 113 117 119 118 116 115 113 111 108 106 104 101 99 98 98 98 99 100 101 102 102 104 106 109 112 116 118 119 119
131 129 128 126 125 123 121 120 118 117 116 115 114 114 114 114 115 116 117 116 112 110 108 107 106 106 105 105 106 109 112 115 115 115 114 113 111 111 110 111 115 118 119 119 117 115 114 112 110 108 106 103 101 100 100 100 102 103 104 105 105 106 108 109 110 111 113 113 113
133 132 130 129 128 126 124 122 121 120 118 117 117 116 116 116 116 117 118 117 114 112 111 110 109 108 108 108 108 109 110 113 114 114 113 112 112 112 113 114 116 119 120 119 118 116 115 113 111 109 107 104 104 104 103 103 104 105 104 103 101 99 99 100 103 104 105 104 102
133 132 131 130 129 127 126 124 123 122 121 119 118 118 118 118 119 119 119 118 116 115 113 111 110 109 110 110 108 107 107 108 111 112 112 112 113 114 115 115 117 119 120 120 119 117 116 115 113 111 110 108 108 109 108 108 108 108 106 103 97 90 83 82 96 107 111 110 107
131 130 129 129 128 127 125 124 124 123 122 121 119 119 119 119 120 120 119 118 117 116 114 112 111 111 110 110 107 105 104 104 106 108 110 111 113 115 116 116 118 119 120 121 119 118 117 116 115 113 112 110 111 112 113 113 112 110 107 104 98 87 76 66 81 103 112 112 110
129 128 128 128 127 125 124 123 123 123 123 122 121 121 121 120 119 118 117 114 113 113 112 111 112 112 111 110 108 106 104 102 103 105 108 111 113 115 115 115 117 119 120 121 120 119 118 117 116 114 113 111 113 115 116 116 114 111 108 104 102 97 90 80 78 78 88 100 109
128 128 128 128 127 125 123 123 123 123 122 121 122 122 122 121 119 117 116 114 113 111 110 110 111 111 111 110 109 107 106 104 103 104 107 110 112 113 114 114 116 118 120 121 121 120 119 118 117 117 116 115 116 117 118 117 114 111 108 105 104 103 101 95 87 76 65 57 90